Diamond Shoals, NC (41025)

Conditions for Friday

Daily
Weekly
Monthly
Marine Data Graph

Current Weather/Wave Observations

Air Temperature: 58° F
Humidity: 61
Wind direction (W Dir): NW (305 - 314 Degrees)
Wind Speed (W Spd): 25.3 kts (29.1 mph)
Wind Gust (W Spd): 33.1 kts (38.0 mph)
Dominant Wave Period (DWP): 6 sec
Dominant Wave Height (DWH): 5.91 ft
Dominant Wave Range (DWR): exactly 5.9 ft
Wind Wave Period (WWP): 6 sec
Wind Wave Height (WWH): 6.56 ft
Wind Wave Range (WWR): 5.74 - 7.38 ft
Atmospheric Pressure (AP): 29.94 in

Updated: 7:50 PM EST on December 15, 2017

Marine & Boating Location Search

Enter a coastal zip code for marine weather.

Current Wave Detail Observations

Water Depth: 210 ft
Wave Height: 6.07 ft
Spectral Peak Period: 6.3 sec
Average Wave Period: 4.9 sec
Sampling Interval: 0.6 sec
Wave Record: 2400 sec

Updated: 8:00 PM EST on December 15, 2017

General Information

Location: 35.006 North -75.402 West
Buoy Type: 3-meter discus buoy
Buoy Hull: 3DV09
Payload: ARES payload
Owned by: NDBC
Windspeed: Measured by obtained from anemometer
Sea Surface: Measured by Intake
Note: This buoy is located in the Monitor National Marine Sanctuary. Right whales are active off NC from November to April. Speed restrictions of 10 knots apply to vessels 65 feet or greater in specific areas and times along the mid-Atlantic coast. To learn more about right whales and rules protecting them, go to: http://www.nmfs.noaa.gov/pr/shipstrike/ 


  

Weather and Wave Data

Time Temp Humidity Wind Dominant Wave Wind Wave Wave Swell Pressure
  Air
(°F)
Water
(°F)
  Dir Speed
(kts)
Speed
(mph)
Period
(sec)
Height
(ft)
Range
(ft)
Period
(sec)
Height
(ft)
Range
(ft)
Period
(sec)
Height
(ft)
Range
(ft)
Atmo.
(in)
Tend.
(in)
20:10 56 74 34 NNW 5.8 6.7 - - - - - - 29.99 -
20:20 56 74 35 North 5.8 6.7 - - - - - - 29.99 -
20:30 56 74 33 NNW 5.8 6.7 - - - - - - 30.00 -
20:40 74
-
North 5.8 6.7 - - - - - - 30.00 -
20:50 56 74 33 North 5.8 6.7 8 5.91 exactly 5.9 4 1.64 0.82 - 2.46 8 6.56 5.74 - 7.38 30.00 -
21:10 56 74 32 North 7.8 8.9 - - - - - - 30.00 -
21:20 56 74 31 North 5.8 6.7 - - - - - - 30.00 -
21:30 57 74 31 NNE 3.9 4.5 - - - - - - 30.00 -
21:40 57 74 33 NNE 5.8 6.7 - - - - - - 30.01 -
21:50 57 74 33 NNE 5.8 6.7 8 5.25 exactly 5.2 4 1.64 0.82 - 2.46 8 4.92 4.10 - 5.74 30.01 -
22:10 57 74 35 North 5.8 6.7 - - - - - - 30.01 -
22:30 57 74 37 North 7.8 8.9 - - - - - - 30.01 -
22:40 57 74 36 North 5.8 6.7 - - - - - - 30.02 -
22:50 57
-
34 North 7.8 8.9 9 4.92 exactly 4.9 4 1.64 0.82 - 2.46 9 4.92 4.10 - 5.74 30.02 -
23:10 57 74 35 North 7.8 8.9 - - - - - - 30.02 -
23:20 58 74 36 NNE 7.8 8.9 - - - - - - 30.02 -
23:40 58 74 33 North 5.8 6.7 - - - - - - 30.01 -
23:50 58 74 33 North 5.8 6.7 8 4.27 exactly 4.3 3 1.64 0.82 - 2.46 8 4.92 4.10 - 5.74 30.00 -
00:00 58 74 35 North 5.8 6.7 - - - - - - 30.00 -
00:10 58 74 37 NNE 7.8 8.9 - - - - - - 30.00 -
00:20 58 74 41 NE 5.8 6.7 - - - - - - 29.99 -
00:30 58 74 40 NE 5.8 6.7 - - - - - - 29.99 -
00:40 58 74 44 NNE 7.8 8.9 - - - - - - 29.99 -
00:50 58 74 48 NNE 7.8 8.9 8 4.27 exactly 4.3 4 1.64 0.82 - 2.46 8 4.92 4.10 - 5.74 29.99 -
01:10 58 74 46 NNE 7.8 8.9 - - - - - - 29.98 -
01:20 58 74 46 NE 5.8 6.7 - - - - - - 29.98 -
01:30 58 74 48 ENE 7.8 8.9 - - - - - - 29.99 -
01:50 58 74 44 East 5.8 6.7 7 3.94 exactly 3.9 3 1.64 0.82 - 2.46 7 3.28 2.46 - 4.10 29.99 -
02:10 59 74 41 NNE 3.9 4.5 - - - - - - 30.00 -
02:20 59 74 46 NNE 5.8 6.7 - - - - - - 30.00 -
02:30 59 74 49 NE 5.8 6.7 - - - - - - 30.00 -
02:40 59 74 46 East 5.8 6.7 - - - - - - 30.00 -
02:50 59 74 48 ENE 5.8 6.7 - - - - - - 30.00 -
03:10 59 74 48 East 5.8 6.7 - - - - - - 29.99 -
03:20 59 74 51 ENE 3.9 4.5 - - - - - - 29.99 -
03:30 59 74 52 NE 7.8 8.9 - - - - - - 29.99 -
03:40 59 74 52 ENE 5.8 6.7 - - - - - - 29.99 -
03:50 59 74 49 ENE 3.9 4.5 6 3.61 exactly 3.6 4 1.64 0.82 - 2.46 6 3.28 2.46 - 4.10 29.99 -
04:00 59 74 51 ENE 5.8 6.7 - - - - - - 29.98 -
04:10 60 74 50 East 3.9 4.5 - - - - - - 29.98 -
04:30 60 74 50 ENE 5.8 6.7 - - - - - - 29.98 -
04:40 60 74 51 ENE 3.9 4.5 - - - - - - 29.98 -
04:50 60 74 51 ENE 3.9 4.5 7 3.61 exactly 3.6 4 1.64 0.82 - 2.46 7 3.28 2.46 - 4.10 29.98 -
05:10 60 74 49 ENE 3.9 4.5 - - - - - - 29.98 -
05:20 60 74 48 ENE 3.9 4.5 - - - - - - 29.98 -
05:30 61 74 45 ESE 3.9 4.5 - - - - - - 29.99 -
05:40 60 74 48 ESE 1.9 2.2 - - - - - - 29.98 -
05:50 60 74 50 East 1.9 2.2 8 3.61 exactly 3.6 4 1.64 0.82 - 2.46 8 3.28 2.46 - 4.10 29.98 -
06:10 61 74 48 - 0.0 0.0 - - - - - - 29.99 -
06:20 61 74 49 SSE 1.9 2.2 - - - - - - 29.98 -
06:30 61 74 49 East 1.9 2.2 - - - - - - 29.99 -
06:40 61 74 49 NE 1.9 2.2 - - - - - - 29.99 -
06:50 61 74 49 - 0.0 0.0 6 3.94 exactly 3.9 3 1.64 0.82 - 2.46 6 3.28 2.46 - 4.10 29.98 -
07:00 61 74 50 ESE 1.9 2.2 - - - - - - 29.98 -
07:10 61 74 49 SSE 1.9 2.2 - - - - - - 29.98 -
07:20 62 74 48 South 1.9 2.2 - - - - - - 29.98 -
07:30 62 74 49 SSE 3.9 4.5 - - - - - - 29.97 -
07:40 62 74 48 South 3.9 4.5 - - - - - - 29.97 -
07:50 62 74 49 SSW 3.9 4.5 7 3.61 exactly 3.6 4 1.64 0.82 - 2.46 7 3.28 2.46 - 4.10 29.97 -
08:10 62 74 50 WSW 3.9 4.5 - - - - - - 29.97 -
08:30 62 74 52 SW 7.8 8.9 - - - - - - 29.97 -
08:40 62 74 52 SSW 7.8 8.9 - - - - - - 29.97 -
08:50 63 74 50 SSW 9.7 11.2 7 3.94 exactly 3.9 4 1.64 0.82 - 2.46 7 3.28 2.46 - 4.10 29.97 -
09:10 64 74 43 SW 13.6 15.7 - - - - - - 29.98 -
09:20 64 74 45 SSW 13.6 15.7 - - - - - - 29.98 -
09:40 64 74 42 SSW 15.6 17.9 - - - - - - 29.98 -
09:50 64 74 41 SW 15.6 17.9 6 3.61 exactly 3.6 6 3.28 2.46 - 4.10 - - - 29.98 -
10:10 64 74 44 SW 15.6 17.9 - - - - - - 29.98 -
10:20 64
-
43 SSW 17.5 20.1 - - - - - - 29.97 -
10:30 64 74 43 SW 17.5 20.1 - - - - - - 29.97 -
10:40 65 74 39 SW 17.5 20.1 - - - - - - 29.96 -
10:50 64 74 41 SW 17.5 20.1 7 3.94 exactly 3.9 6 3.28 2.46 - 4.10 7 3.28 2.46 - 4.10 29.96 -
11:00 64 74 41 SW 19.4 22.4 - - - - - - 29.96 -0.01
11:10 64 74 40 SW 19.4 22.4 - - - - - - 29.95 -
11:30 64 74 39 WSW 19.4 22.4 - - - - - - 29.93 -
11:40 64 74 38 SW 21.4 24.6 - - - - - - 29.93 -
11:50 64 74 41 WSW 21.4 24.6 7 4.27 exactly 4.3 6 3.28 2.46 - 4.10 7 1.64 0.82 - 2.46 29.93 -
12:00 64 74 43 WSW 21.4 24.6 - - - - - - 29.92 -0.06
12:10 64 74 39 WSW 21.4 24.6 - - - - - - 29.92 -
12:20 64 74 39 WSW 21.4 24.6 - - - - - - 29.91 -
12:30 74
-
WSW 21.4 24.6 - - - - - - 29.91 -
12:40 63 74 42 WSW 21.4 24.6 - - - - - - 29.91 -
12:50 63 74 43 WSW 19.4 22.4 5 4.92 exactly 4.9 5 4.92 4.10 - 5.74 - - - 29.90 -
13:00 63 74 44 WSW 21.4 24.6 - - - - - - 29.90 -0.08
13:10 64 74 44 WSW 21.4 24.6 - - - - - - 29.90 -
13:20 64 74 42 WSW 21.4 24.6 - - - - - - 29.90 -
13:30 63 74 44 WSW 21.4 24.6 - - - - - - 29.89 -
13:40 63 74 45 WSW 21.4 24.6 - - - - - - 29.88 -
13:50 63 74 44 WSW 21.4 24.6 5 5.58 exactly 5.6 5 4.92 4.10 - 5.74 11 1.64 0.82 - 2.46 29.87 -
14:10 63 74 45 WSW 21.4 24.6 - - - - - - 29.86 -
14:20 63 74 44 WSW 21.4 24.6 - - - - - - 29.87 -
14:30 63 74 45 WSW 23.3 26.8 - - - - - - 29.87 -
14:40 63 74 43 WSW 23.3 26.8 - - - - - - 29.86 -
14:50 64 74 44 WSW 23.3 26.8 6 5.58 exactly 5.6 6 4.92 4.10 - 5.74 - - - 29.87 -
15:00 64 74 46 WSW 23.3 26.8 - - - - - - 29.88 -0.04
15:20 64 73 47 WSW 23.3 26.8 - - - - - - 29.88 -
15:30 63 74 49 WSW 23.3 26.8 - - - - - - 29.88 -
15:40 63 73 48 WSW 23.3 26.8 - - - - - - 29.87 -
15:50 63 73 48 WSW 23.3 26.8 6 6.23 exactly 6.2 6 6.56 5.74 - 7.38 - - - 29.88 -
16:00 63 73 48 WSW 23.3 26.8 - - - - - - 29.87 -0.03
16:10 63 73 49 WSW 23.3 26.8 - - - - - - 29.87 -
16:30 63 73 47 WSW 23.3 26.8 - - - - - - 29.88 -
16:40 63 73 48 WSW 25.3 29.1 - - - - - - 29.88 -
16:50 63 73 45 WSW 25.3 29.1 6 6.89 exactly 6.9 6 6.56 5.74 - 7.38 - - - 29.88 -
17:10 63 73 45 WSW 25.3 29.1 - - - - - - 29.89 -
17:20 63 73 45 WSW 25.3 29.1 - - - - - - 29.88 -
17:30 63 73 44 WSW 25.3 29.1 - - - - - - 29.89 -
17:40 63 73 45 WSW 23.3 26.8 - - - - - - 29.89 -
17:50 63 73 43 West 25.3 29.1 6 6.89 exactly 6.9 6 6.56 5.74 - 7.38 - - - 29.90 -
18:00 63 73 44 West 23.3 26.8 - - - - - - 29.91 +0.02
18:10 62 73 45 West 23.3 26.8 - - - - - - 29.90 -
18:20 62 73 45 West 21.4 24.6 - - - - - - 29.89 -
18:30 62 73 44 West 21.4 24.6 - - - - - - 29.90 -
18:40 62 73 43 West 21.4 24.6 - - - - - - 29.90 -
18:50 62
-
45 West 19.4 22.4 - - - - - - 29.91 -
19:10 62 73 45 West 21.4 24.6 - - - - - - 29.91 -
19:20 62 73 46 West 21.4 24.6 - - - - - - 29.93 -
19:40 61 73 47 West 23.3 26.8 - - - - - - 29.93 -
19:50 58 73 61 NW 25.3 29.1 6 5.91 exactly 5.9 6 6.56 5.74 - 7.38 - - - 29.94 -

Detailed Wave Spectra

Time Water Depth Wave Height Spectral Peak Period Average Wave Period Sampling Interval Wave Record
20:00 210 ft 6.07 ft 8.3 sec 6.6 sec 0.6 sec 2400 sec
21:00 210 ft 5.97 ft 8.3 sec 6.6 sec 0.6 sec 2400 sec
22:00 210 ft 5.38 ft 8.3 sec 6.5 sec 0.6 sec 2400 sec
23:00 210 ft 4.79 ft 9.1 sec 6.3 sec 0.6 sec 2400 sec
01:00 210 ft 4.30 ft 8.3 sec 6.2 sec 0.6 sec 2400 sec
02:00 210 ft 3.84 ft 6.7 sec 5.9 sec 0.6 sec 2400 sec
05:00 210 ft 3.64 ft 7.1 sec 5.5 sec 0.6 sec 2400 sec
06:00 210 ft 3.58 ft 7.7 sec 5.6 sec 0.6 sec 2400 sec
08:00 210 ft 3.74 ft 7.1 sec 5.6 sec 0.6 sec 2400 sec
09:00 210 ft 3.77 ft 7.1 sec 5.8 sec 0.6 sec 2400 sec
10:00 210 ft 3.51 ft 6.3 sec 5.1 sec 0.6 sec 2400 sec
14:00 210 ft 5.45 ft 5.0 sec 4.6 sec 0.6 sec 2400 sec
17:00 210 ft 6.86 ft 6.3 sec 5.1 sec 0.6 sec 2400 sec
19:00 210 ft 6.76 ft 6.7 sec 5.1 sec 0.6 sec 2400 sec
20:00 210 ft 6.07 ft 6.3 sec 4.9 sec 0.6 sec 2400 sec